Wind_Speed
35 36 34 33 33 34 34 33 33 33 34 34 35 36 36 37 37 38 38 38 39 40 41 41 42 42 42 41 41 41 40 40 39 39 38 37 37 37 36 36 36 35 35 35 34 34 33 33 33 33 33 33 33 33 33 33 34 35 36 36 37 37 37 38 38 38 37 35 34 33 33 34 35 37 39 43 47 50 50 49 47 46 45 44 44 45
35 36 35 34 34 34 35 35 35 36 36 36 36 36 36 36 36 36 36 36 37 38 39 39 40 40 41 41 41 41 40 40 39 39 38 38 37 37 37 37 36 36 36 36 36 35 35 35 35 35 34 35 34 34 34 34 35 35 36 36 37 37 37 38 38 38 38 37 36 35 35 36 37 38 38 41 46 50 52 52 51 49 47 46 45 45
37 38 38 38 37 37 38 39 39 39 40 40 39 38 37 36 36 36 36 36 36 37 37 38 38 39 39 39 39 39 39 39 39 38 38 38 38 37 37 37 37 37 37 37 37 37 37 37 37 36 36 36 36 36 36 36 36 36 36 36 36 36 36 36 37 37 37 37 37 37 38 38 39 38 37 39 43 49 53 54 53 52 49 47 45 43
38 38 39 40 39 39 40 40 40 40 40 40 39 38 37 37 36 37 36 36 36 36 36 37 37 37 37 37 38 38 38 38 38 37 37 37 37 37 37 37 37 37 38 38 38 38 38 38 38 38 38 38 38 38 38 37 37 37 36 36 36 36 36 36 36 36 37 38 38 39 40 40 40 37 35 36 39 45 51 53 54 53 51 48 44 41
37 36 37 36 35 34 36 37 37 37 37 38 38 37 37 38 38 37 37 36 36 35 35 35 35 35 35 35 35 36 36 36 36 35 35 35 35 35 36 36 36 36 37 37 38 38 38 39 39 39 39 40 40 40 40 40 40 39 39 39 38 37 37 36 36 36 37 38 39 40 41 42 41 39 36 35 37 40 45 49 52 52 51 49 46 43
35 34 33 32 31 31 32 32 33 33 34 35 36 37 38 38 38 36 35 34 33 33 33 33 33 33 33 33 33 34 34 34 33 33 33 33 33 34 34 34 34 35 35 36 36 36 37 37 38 39 39 40 41 42 43 43 44 44 44 44 43 41 39 38 37 37 38 38 39 39 40 41 42 41 39 38 38 38 41 45 48 49 48 46 44 42
33 32 31 29 29 30 29 30 30 30 31 33 35 36 38 37 36 33 31 29 29 29 30 30 31 31 31 31 31 31 32 31 31 31 31 31 32 32 32 33 33 33 34 34 34 35 35 36 37 37 38 39 41 42 44 45 47 48 49 49 48 45 43 41 40 39 38 38 37 37 38 39 41 41 39 38 37 38 39 42 45 46 44 41 39 36
30 30 29 28 28 28 29 29 30 30 31 33 35 36 36 34 31 28 25 24 25 26 27 28 28 28 28 28 29 30 30 30 29 29 29 29 30 30 30 31 31 32 32 33 33 33 34 34 35 35 36 37 37 38 40 42 44 46 48 49 49 48 46 45 43 41 40 38 37 37 37 37 38 38 37 36 36 37 39 42 44 44 43 40 36 32
29 29 28 29 29 29 30 30 30 31 31 32 34 34 33 30 28 25 23 23 24 25 25 25 25 24 24 25 26 28 28 28 27 27 27 27 27 27 28 28 29 30 30 31 31 32 32 32 32 32 33 33 32 33 33 34 35 37 39 42 44 46 47 47 47 45 43 40 38 37 37 37 37 38 38 38 38 39 41 43 44 45 44 41 37 33
25 26 27 28 29 30 30 30 30 30 31 31 31 30 29 28 26 26 25 25 24 23 22 21 21 21 20 21 22 24 26 26 26 25 24 24 24 24 25 26 26 27 29 29 30 30 30 30 31 30 30 28 27 27 27 27 27 28 30 33 36 40 44 47 48 48 45 42 39 37 36 37 38 39 40 40 41 42 43 44 45 45 43 40 36 31
16 20 23 25 26 26 27 27 27 27 26 26 26 26 25 24 24 24 24 23 21 19 18 17 17 17 17 18 18 20 21 21 22 22 22 22 22 22 24 25 26 27 28 29 29 29 29 28 28 26 25 23 22 22 22 22 22 23 24 27 30 35 39 42 45 47 46 44 40 38 38 39 41 43 44 44 44 45 45 45 44 42 39 35 32 28
6 10 14 17 17 17 18 20 20 20 20 20 20 19 20 20 21 21 20 19 18 16 15 14 14 14 15 15 16 16 17 17 17 17 18 19 20 21 22 23 24 25 26 26 26 25 24 22 20 19 19 18 19 19 19 20 20 22 23 26 29 32 35 38 41 44 45 44 43 42 42 44 45 47 48 49 49 48 47 45 41 37 33 30 27 25
3 5 7 9 9 10 10 12 14 15 14 14 15 15 16 16 17 17 16 16 15 15 14 13 13 13 13 13 14 14 15 15 14 14 14 15 16 17 18 19 19 19 19 19 19 18 17 16 16 16 16 16 17 18 18 19 21 23 25 27 29 31 34 36 38 41 43 44 45 45 46 47 49 50 50 50 48 46 42 37 31 26 23 21 20 20
7 7 7 7 7 8 8 9 11 12 12 12 12 12 13 14 15 15 15 14 14 14 14 14 13 13 13 13 13 13 13 13 13 13 12 12 13 14 14 14 14 15 15 14 14 14 14 13 14 15 15 16 17 18 19 20 22 24 26 28 29 31 33 35 37 40 42 43 43 44 45 45 46 45 44 41 37 33 27 22 18 17 17 19 20 22
12 11 11 10 10 10 10 11 12 13 13 12 11 12 13 14 15 15 15 15 15 15 16 15 14 13 13 13 13 13 12 12 12 12 11 11 12 13 13 13 13 13 13 12 13 13 12 12 13 14 14 15 16 18 19 21 22 24 25 26 28 29 31 33 35 37 38 38 39 38 38 37 35 32 29 25 21 18 16 17 18 20 21 22 24 24
16 16 16 14 14 14 14 14 15 15 15 14 13 14 15 16 17 17 16 16 16 17 17 16 15 14 14 14 15 14 13 12 12 11 10 10 11 12 12 11 11 11 11 11 11 11 11 11 12 13 13 15 16 17 19 20 21 22 23 24 25 26 27 29 30 31 31 31 30 28 27 24 22 19 16 15 15 17 19 20 22 22 23 23 23 24
18 19 18 18 17 17 17 17 17 17 16 16 16 16 17 17 17 18 17 17 17 17 17 17 16 14 14 14 15 16 14 12 11 11 9 8 10 11 11 10 10 10 9 10 10 10 10 10 11 12 13 14 15 16 17 18 19 20 21 21 22 23 23 24 24 24 24 23 21 19 18 16 15 15 16 17 19 20 21 22 23 23 23 22 22 22
15 17 17 17 18 18 19 19 19 19 18 18 18 19 19 19 19 19 18 18 17 16 16 16 15 14 13 13 13 14 14 11 10 9 8 8 9 10 9 9 8 8 9 9 9 9 9 10 11 12 13 13 14 15 16 16 17 17 18 18 19 19 19 20 19 19 19 18 17 16 16 16 17 18 19 20 21 21 22 22 22 22 22 22 22 22
10 11 12 14 15 16 17 18 18 19 19 19 19 19 19 20 20 20 19 18 16 15 14 12 12 12 11 11 12 12 12 10 9 9 8 8 9 9 9 8 8 8 9 9 9 9 9 10 11 11 12 13 13 14 15 15 15 16 16 17 17 17 17 18 18 18 18 18 18 18 18 18 19 19 20 21 21 22 22 22 22 22 22 22 22 22
6 7 8 9 10 12 13 14 15 16 16 17 18 18 18 18 18 18 18 17 16 15 14 12 10 9 9 9 10 11 10 8 8 8 8 8 9 10 9 8 8 9 9 9 9 9 9 10 10 11 11 12 13 13 14 14 15 15 16 16 17 17 17 18 18 18 18 19 19 19 19 19 19 20 21 21 22 22 22 22 22 22 22 22 22 22
6 6 6 6 7 8 9 10 11 12 13 14 14 14 15 15 15 15 15 15 14 14 14 12 10 9 8 9 10 10 9 8 8 9 8 9 9 10 9 8 8 9 9 9 9 9 10 10 10 11 11 12 13 13 14 14 15 15 16 16 16 17 17 18 18 18 18 19 19 19 19 19 20 20 21 21 21 22 22 22 22 22 22 22 22 21
7 7 7 7 7 7 7 7 8 9 9 10 10 10 11 11 12 12 13 13 13 13 12 11 11 10 9 9 10 10 9 7 8 8 8 9 10 10 10 9 9 9 9 9 9 9 10 10 11 11 12 12 13 13 14 14 15 15 16 16 16 17 17 17 17 18 18 18 19 19 19 19 20 20 20 21 21 21 21 21 21 21 21 21 21 21
9 8 8 8 8 8 8 8 8 8 9 9 9 9 8 9 9 10 10 11 11 11 10 10 10 10 9 9 10 10 9 8 8 9 9 10 11 10 10 10 9 9 9 10 10 10 10 10 11 11 12 13 13 13 14 14 15 15 15 15 15 15 16 16 16 17 17 17 18 18 18 19 19 19 19 20 20 20 20 20 20 20 20 20 20 20
10 10 10 10 10 10 10 10 9 9 9 10 10 10 10 9 9 9 9 9 9 9 9 10 10 10 10 10 11 11 10 10 9 9 10 11 10 10 10 10 10 10 10 10 10 11 11 11 11 11 12 12 13 13 13 13 14 14 14 14 14 14 14 15 15 15 16 16 16 17 17 17 18 18 18 18 19 19 19 19 19 19 19 19 19 19
11 11 11 11 11 10 10 10 9 9 8 8 9 9 10 10 10 9 9 9 9 9 10 10 11 11 11 11 11 11 11 11 10 10 10 10 10 10 10 10 10 10 10 11 11 12 11 11 11 12 12 12 12 12 12 12 12 12 12 12 12 12 13 13 14 14 15 15 15 16 16 16 17 17 17 17 18 18 18 18 18 18 18 18 17 17
9 9 9 9 9 8 8 8 8 8 7 7 7 8 8 9 9 9 9 10 10 10 10 11 11 11 11 11 11 12 12 11 11 10 10 10 11 11 11 11 11 11 11 12 12 12 12 11 11 11 11 11 11 11 11 11 11 11 11 11 11 12 12 13 13 14 14 15 15 15 16 16 16 17 17 17 17 17 17 17 17 17 17 16 16 16
8 7 7 7 6 6 6 6 6 6 6 6 6 7 7 8 8 9 9 10 10 10 10 10 11 11 11 11 11 12 12 12 11 11 11 11 11 12 12 12 11 11 11 12 12 12 12 11 11 11 11 10 10 10 10 10 10 10 10 11 11 12 12 13 14 14 15 15 16 16 16 17 17 17 17 17 17 17 17 17 16 16 15 15 14 14
7 7 7 6 6 6 5 5 5 5 5 5 6 6 7 7 8 9 8 8 9 9 10 10 11 11 11 11 11 11 11 12 12 12 11 12 12 12 12 12 12 11 11 11 12 12 11 11 11 11 11 10 10 10 10 10 10 10 11 11 12 12 13 14 14 15 15 16 16 16 17 17 17 17 17 17 17 16 16 15 15 14 14 13 13 12
8 8 7 7 7 7 6 6 6 6 5 5 5 6 6 7 8 8 8 7 7 8 8 9 9 10 10 10 9 9 10 11 11 11 12 12 12 11 11 12 12 11 10 11 11 11 11 11 11 11 11 10 10 10 10 10 10 11 11 12 13 13 14 14 15 15 16 16 16 16 16 16 16 16 16 16 15 15 14 14 13 13 13 12 12 11
9 9 9 9 8 8 7 7 6 6 6 5 5 5 6 6 7 8 8 8 8 7 7 7 8 8 8 8 9 10 10 10 10 11 11 11 11 10 11 12 11 10 10 11 12 12 11 11 11 11 11 11 11 11 11 11 11 12 12 13 13 14 14 14 15 15 15 15 15 15 15 15 15 15 15 14 14 13 13 13 12 12 12 12 12 11
10 10 10 10 9 8 8 7 6 6 6 6 6 5 5 6 7 8 9 9 8 8 7 6 6 6 7 7 9 10 11 10 10 10 10 10 9 10 11 11 11 10 10 11 12 12 12 12 12 12 11 11 11 11 11 12 12 12 13 13 13 14 14 14 14 14 14 14 14 14 14 14 14 14 14 13 13 13 12 12 12 12 12 12 12 12
9 9 10 10 9 9 8 8 7 7 6 6 6 6 6 6 6 7 8 8 9 9 8 7 6 6 6 7 8 8 9 8 8 8 8 8 8 9 10 10 10 10 10 11 12 12 10 11 12 12 12 12 12 12 12 12 12 13 13 13 13 13 13 13 13 13 13 13 13 13 13 13 13 13 13 13 13 12 12 12 12 12 13 13 13 13
8 8 9 9 9 9 8 8 8 7 7 7 6 6 6 6 7 7 7 8 8 9 10 9 8 8 8 8 8 7 7 7 7 8 7 7 8 8 9 9 9 10 10 11 12 12 10 11 11 11 12 12 12 12 12 12 13 13 12 12 12 12 12 12 13 13 13 13 13 13 13 13 13 13 13 13 13 13 13 13 13 13 13 13 13 14
7 7 8 8 8 8 8 8 8 8 7 7 7 7 7 7 7 7 8 8 9 10 11 10 10 10 10 10 10 9 8 7 8 8 8 7 7 8 9 9 9 10 10 11 11 11 11 11 11 11 11 12 12 12 12 12 13 12 12 12 11 11 11 12 12 12 12 12 13 13 13 13 13 13 13 13 13 13 13 13 13 13 14 14 14 14
8 7 8 8 8 8 8 8 8 8 8 7 7 7 8 8 8 9 9 9 10 10 11 11 10 10 10 11 11 10 9 8 8 8 8 8 8 8 9 9 9 9 10 11 11 11 12 12 12 11 11 12 12 12 12 12 12 12 12 11 11 11 11 12 12 12 12 12 13 13 13 13 14 14 14 14 14 13 13 13 13 14 14 14 14 15
8 8 8 8 9 9 9 9 8 8 8 8 8 8 8 8 9 9 10 10 11 11 11 11 10 10 10 10 10 10 9 8 8 8 8 9 9 9 10 9 9 9 10 11 11 12 12 12 12 12 12 11 12 12 12 12 12 12 11 11 11 11 12 12 12 12 12 13 13 13 13 14 14 14 14 14 14 14 14 14 14 14 14 15 15 15
9 8 9 9 9 10 10 9 9 8 8 9 9 8 8 8 9 9 10 10 11 11 11 11 11 10 10 9 9 8 8 8 8 8 8 9 10 10 10 10 10 10 10 11 11 11 12 12 12 12 12 12 11 11 11 11 11 11 11 11 11 11 12 12 12 12 13 13 13 13 14 14 14 14 13 13 13 14 14 14 14 14 15 15 15 16
9 9 9 10 10 10 10 10 9 9 9 9 9 9 8 8 9 9 9 10 10 10 10 10 10 10 10 10 9 9 9 8 8 8 8 8 10 11 11 11 11 11 11 11 11 11 12 11 11 12 12 12 12 11 10 10 10 10 10 11 12 12 12 12 12 13 13 13 13 14 14 14 14 13 13 13 13 14 14 14 14 15 15 16 16 17
9 10 10 10 10 10 10 10 9 9 9 9 9 9 8 8 9 9 9 9 9 9 9 9 9 9 9 9 9 9 9 9 8 8 7 8 9 10 11 12 12 12 12 12 11 12 12 11 11 11 12 12 11 11 11 10 10 10 11 11 12 12 12 13 13 13 14 13 13 14 14 14 14 13 13 14 14 14 14 15 15 16 16 17 18 18
10 10 11 11 11 10 10 10 10 9 9 9 9 9 8 8 8 9 9 9 9 8 8 8 8 8 8 8 8 8 8 8 8 7 7 7 8 9 10 11 12 12 12 11 11 11 11 11 12 12 12 11 11 11 10 10 11 11 11 11 11 12 13 13 13 14 14 13 14 14 14 14 14 14 14 14 14 15 15 16 16 17 18 19 20 20
10 11 11 11 11 11 11 10 10 9 9 9 9 8 8 8 8 8 8 8 8 8 8 7 7 7 7 7 7 7 7 7 6 6 6 6 7 8 9 10 11 11 11 10 10 10 10 11 11 11 11 11 11 11 10 10 10 10 10 10 11 12 12 13 13 13 13 13 14 14 14 14 14 15 15 15 15 16 16 17 18 18 19 20 22 22
10 10 10 10 10 10 10 10 10 9 9 8 8 8 8 8 8 8 7 7 7 7 7 6 6 6 6 6 6 6 6 6 5 5 6 6 6 7 8 9 10 10 10 10 9 9 9 10 10 11 10 10 10 10 10 10 10 10 10 10 10 11 11 12 12 12 12 12 13 13 14 14 15 15 15 15 16 17 17 18 19 20 21 22 23 24
8 9 9 9 9 9 9 9 9 9 8 8 8 8 8 8 7 7 7 6 6 6 6 6 5 5 5 5 5 5 6 6 5 5 6 6 7 7 8 9 9 10 10 9 9 9 9 10 10 10 10 10 10 10 9 10 10 10 10 9 9 9 9 11 11 11 11 11 11 12 13 14 14 15 15 16 17 18 19 20 21 21 22 23 24 25
7 8 8 8 8 8 8 8 8 8 8 8 8 8 8 8 7 7 6 6 6 6 5 5 5 5 5 5 5 6 6 6 6 6 6 7 7 8 8 8 9 9 10 9 9 9 9 10 10 10 10 10 10 10 10 10 10 10 9 9 9 9 9 10 10 10 10 11 11 12 13 14 15 15 16 17 18 19 20 21 22 23 24 25 25 26
7 7 7 7 7 7 7 8 8 8 8 8 8 8 8 7 7 7 6 6 6 6 6 6 6 6 6 6 7 7 7 7 7 7 7 7 8 8 8 9 9 9 9 9 9 9 9 9 9 9 10 10 10 10 10 10 10 10 10 9 9 9 10 11 11 11 12 12 12 13 14 15 16 17 18 19 20 21 22 23 23 24 24 25 25 25
7 7 8 7 7 8 8 8 8 8 8 8 8 8 8 7 7 7 7 7 6 6 6 6 6 6 7 7 8 8 8 8 8 8 8 8 8 8 8 9 9 9 9 9 9 9 9 9 9 9 9 9 9 9 10 10 10 10 10 10 10 10 11 11 11 12 13 14 15 15 16 16 17 19 19 20 21 22 23 23 24 24 24 24 25 25
8 8 8 8 8 8 8 8 8 8 8 8 8 8 8 7 7 7 7 7 7 7 7 7 7 7 8 8 8 8 8 8 8 8 8 8 8 8 8 9 9 9 9 8 8 8 9 9 9 8 8 8 8 9 10 10 10 10 11 11 11 12 12 13 13 14 15 16 17 17 18 19 20 20 21 21 22 22 23 23 24 24 24 24 24 24
9 9 9 9 9 9 9 9 9 9 9 9 9 8 8 8 7 7 7 7 7 7 7 7 8 8 8 9 9 9 8 8 8 8 8 8 8 8 8 8 8 8 8 8 8 8 8 8 8 8 8 8 9 9 10 10 10 11 11 12 12 13 14 15 15 16 16 17 18 18 19 20 20 21 21 21 21 22 22 22 23 24 24 24 23 23
9 9 9 9 10 10 10 9 9 9 9 9 9 8 8 8 8 8 8 7 7 8 8 8 8 8 8 9 9 9 9 9 9 9 8 8 8 7 7 7 7 7 7 7 8 8 8 8 8 8 9 9 9 10 10 11 11 12 12 13 13 14 15 16 16 17 17 18 18 18 19 20 20 20 20 20 21 21 21 22 22 23 23 23 23 22
9 9 9 10 10 10 10 10 9 9 9 9 9 9 8 8 8 8 8 8 8 8 8 8 8 8 8 9 9 8 8 8 8 9 9 8 8 7 7 6 6 6 6 7 7 8 8 8 9 9 10 10 10 11 11 12 12 12 13 13 14 15 15 16 16 17 17 18 18 18 18 19 19 20 20 20 20 21 21 21 22 22 22 22 22 20
9 9 9 10 10 10 10 10 10 10 10 9 9 9 9 8 8 8 8 8 8 8 8 8 8 8 8 8 8 8 8 8 8 9 9 9 8 7 7 7 6 6 6 6 7 7 8 8 9 10 11 11 11 11 11 11 12 13 13 14 14 14 14 15 16 16 17 17 17 18 18 18 19 19 19 20 20 20 21 21 21 21 21 21 20 19
Wind_Direction
232 235 237 236 234 233 233 235 235 236 238 238 238 238 237 237 237 237 237 237 237 238 238 238 239 239 239 239 240 240 240 240 241 241 242 243 244 245 245 246 246 247 247 248 248 249 249 249 249 248 248 248 248 247 247 248 248 248 249 249 250 251 253 254 255 255 256 257 256 251 248 249 251 252 251 249 247 245 244 244 244 244 244 244 244 245
231 234 236 236 234 231 231 233 233 234 235 236 236 236 235 235 235 235 235 236 236 236 237 237 238 238 239 240 240 241 241 242 243 243 244 244 245 246 246 246 247 247 248 248 249 249 249 249 249 249 249 248 248 247 247 248 248 249 250 250 251 252 253 255 255 256 256 257 258 255 251 251 252 254 255 253 249 245 243 242 241 241 242 243 244 245
232 234 236 237 235 232 231 232 233 234 235 235 235 234 233 233 233 234 234 234 234 234 235 236 237 238 238 239 240 241 242 242 243 244 245 245 246 247 247 247 248 248 248 249 249 249 249 249 249 249 249 248 248 247 247 247 247 248 249 250 251 253 254 255 256 256 256 256 257 257 254 251 251 252 254 254 249 244 240 238 237 238 240 242 244 246
231 233 234 234 233 232 231 232 233 234 234 234 234 233 233 232 233 233 234 234 234 234 234 234 235 237 238 239 240 241 241 242 243 244 245 246 246 247 247 248 248 249 249 249 249 249 250 250 250 250 249 249 248 247 246 246 246 247 248 249 251 253 255 256 257 257 256 256 256 256 256 252 249 248 250 252 249 244 240 236 235 236 239 241 243 246
228 229 230 230 229 229 231 232 233 234 234 234 234 233 233 233 233 233 234 234 233 233 233 234 235 236 238 239 240 241 241 241 242 243 244 245 246 247 248 248 249 249 249 249 250 250 250 251 251 251 251 250 249 248 247 246 246 247 247 249 250 252 254 256 257 257 257 256 256 256 256 252 248 246 247 249 250 248 244 239 236 236 237 239 241 245
223 224 225 225 226 228 230 232 233 233 233 234 234 234 233 233 233 233 233 233 233 234 234 234 235 236 238 239 241 241 242 242 242 243 244 245 246 247 248 248 249 249 249 250 250 251 251 252 253 253 253 253 252 251 250 250 249 249 249 250 250 251 252 254 256 256 256 256 256 256 256 253 249 247 247 249 250 251 249 243 239 236 236 237 239 242
220 221 222 224 227 230 231 232 233 234 234 234 234 234 233 232 232 231 232 233 234 236 236 237 237 238 239 240 241 242 242 243 243 244 244 245 246 247 247 248 249 249 250 251 252 253 254 255 256 256 256 256 256 255 255 254 254 253 253 253 251 250 250 251 253 254 253 253 252 251 251 249 247 245 244 244 245 245 244 240 237 235 234 234 234 234
221 223 225 227 229 231 232 232 234 234 234 233 233 232 231 230 229 228 229 232 236 238 239 240 241 241 241 241 242 243 243 243 243 244 245 246 247 248 249 250 251 252 253 254 255 257 258 258 258 258 258 258 258 258 258 258 258 257 257 255 253 251 249 249 250 251 250 247 243 240 239 238 236 233 230 229 229 230 232 232 232 231 231 230 229 227
225 226 228 230 230 229 228 229 230 231 231 231 230 230 228 226 224 223 226 230 234 238 241 243 245 246 246 246 245 245 244 245 246 247 249 250 251 253 254 255 256 257 258 259 260 261 260 259 258 257 257 257 258 258 259 260 260 260 260 258 256 253 250 249 249 249 248 244 238 233 232 231 229 225 220 218 218 220 223 225 227 227 227 226 224 221
225 225 225 226 226 225 223 223 225 227 228 228 227 226 224 223 223 224 226 228 232 236 240 245 248 250 252 252 251 249 247 248 250 252 254 256 257 259 260 261 262 262 263 263 263 262 261 259 257 256 255 255 256 258 260 261 263 264 264 263 261 258 254 251 249 249 248 243 238 234 234 235 233 229 224 220 218 219 220 222 222 223 222 221 218 215
221 221 220 218 218 219 220 221 222 225 227 227 226 224 223 224 226 228 231 231 232 235 240 245 250 253 254 255 254 252 251 251 253 255 257 259 261 262 262 262 262 262 262 262 261 261 259 258 256 255 256 256 258 260 262 264 266 268 269 268 266 261 256 252 249 247 245 242 239 239 241 242 241 237 231 226 223 221 219 218 217 215 214 211 207 203
231 223 218 214 212 213 216 219 223 226 228 228 226 225 225 227 228 231 233 236 237 239 242 246 251 253 254 253 254 254 253 253 253 254 254 255 256 257 257 257 257 257 257 257 257 257 258 259 260 261 263 265 266 267 268 269 271 273 273 272 268 262 256 251 247 244 241 240 240 242 245 246 245 241 235 230 226 222 218 214 211 207 203 200 198 195
240 227 218 210 204 202 205 212 217 221 224 225 226 227 228 230 231 231 233 237 241 244 247 249 250 252 254 252 251 251 252 253 252 251 250 250 251 251 251 251 252 252 252 253 255 258 261 265 270 273 276 277 278 278 277 276 276 275 273 270 266 260 255 249 245 241 238 237 238 240 241 241 238 234 230 225 221 217 213 210 207 207 209 211 214 219
229 226 219 208 198 193 194 201 209 213 216 218 221 226 230 233 236 237 237 239 243 249 252 252 252 252 255 254 252 250 250 252 252 252 252 253 253 253 253 254 255 256 256 258 261 264 266 271 275 278 281 282 282 280 277 274 271 268 264 260 256 252 248 245 241 237 234 232 230 230 229 226 223 220 217 215 213 212 214 219 228 240 249 255 256 256
227 228 226 220 210 203 200 203 208 213 213 212 214 219 226 231 236 239 239 240 243 248 252 253 253 253 255 255 256 255 253 253 254 255 256 256 256 257 258 260 261 262 262 265 265 265 268 270 272 274 277 276 273 269 264 260 255 250 247 243 240 238 235 233 230 227 224 221 218 215 213 210 209 208 208 211 217 228 242 256 265 269 269 268 265 262
225 227 227 225 221 217 215 215 217 217 215 213 215 220 225 230 236 240 241 242 244 245 247 248 247 245 246 250 254 255 254 254 255 257 258 256 254 256 259 259 262 264 262 263 262 261 262 265 267 268 267 264 259 254 249 243 239 235 232 229 227 224 222 220 218 215 213 210 208 206 205 205 208 213 223 238 253 263 269 271 270 269 266 262 258 255
225 226 227 227 227 227 227 228 228 227 225 224 225 228 230 234 239 243 244 245 245 245 247 246 243 238 234 237 243 248 249 249 251 255 257 251 248 250 254 252 252 255 256 255 253 252 253 256 258 259 257 252 248 243 239 235 232 229 227 224 221 219 216 214 212 211 210 209 210 212 216 223 233 245 256 263 267 269 268 266 264 261 257 253 249 246
228 228 228 228 229 230 232 233 234 235 235 234 234 235 235 237 240 243 246 246 247 247 247 246 244 241 235 225 227 237 244 241 242 248 250 243 238 239 243 241 239 241 245 245 244 243 244 246 248 249 248 245 241 238 236 234 232 230 228 226 224 222 221 219 219 220 222 225 229 236 243 250 256 261 265 266 266 264 262 259 255 251 247 243 240 237
227 229 229 228 229 230 232 233 234 234 234 234 235 235 236 237 239 241 243 245 245 244 243 242 239 238 236 225 222 228 236 231 230 234 235 230 225 224 228 226 225 228 232 233 234 234 236 239 241 242 241 239 238 237 236 235 235 234 234 233 232 232 232 233 234 236 239 243 246 249 253 256 258 260 261 261 260 257 254 251 247 243 240 236 234 231
211 218 222 225 228 230 231 231 231 230 229 229 230 231 231 233 234 234 235 237 237 236 235 231 226 225 224 219 215 217 222 219 216 216 218 217 214 213 216 215 215 218 220 222 224 226 228 230 232 234 234 233 233 233 233 234 235 236 236 237 237 238 239 240 242 243 245 247 248 249 250 251 252 252 252 251 250 248 245 242 239 236 233 231 229 228
173 182 193 203 211 217 222 223 222 221 220 221 222 224 225 226 227 227 227 226 225 225 224 215 208 207 206 202 201 203 207 207 204 204 207 210 209 207 207 209 211 212 212 214 216 218 220 221 223 225 227 228 228 229 230 231 232 234 235 235 236 237 238 239 240 241 242 243 243 244 244 244 243 243 242 241 239 237 235 233 231 230 229 228 227 226
154 157 164 172 180 185 190 196 199 201 202 203 206 210 213 217 220 220 220 218 216 212 208 201 200 200 197 194 193 195 199 199 198 199 203 207 207 205 203 206 208 208 209 212 215 217 218 219 220 223 226 227 228 228 229 229 230 231 232 233 234 234 235 236 237 238 238 238 238 238 238 237 236 235 234 232 231 229 228 227 226 226 226 226 227 227
141 142 146 152 157 160 163 166 169 173 177 178 181 185 191 198 205 209 209 209 207 205 202 198 194 190 184 180 184 190 195 195 194 196 203 208 208 206 205 206 208 209 212 216 221 224 225 225 226 229 232 233 233 232 232 231 232 231 231 232 232 233 233 234 234 234 234 234 234 233 232 231 230 229 228 227 226 225 225 225 225 226 227 228 229 230
129 130 133 136 138 141 144 147 150 154 159 162 164 166 170 175 180 186 191 193 193 190 187 185 182 180 178 176 181 187 193 194 196 200 204 207 210 212 212 213 213 215 220 226 230 233 235 235 236 238 240 241 240 238 236 234 233 232 231 231 231 231 232 232 231 231 231 230 229 228 228 227 226 226 225 225 225 225 226 227 228 229 230 232 233 234
125 126 127 128 130 132 134 136 138 142 146 151 155 159 161 161 162 163 165 167 169 170 172 173 174 175 177 178 183 190 192 197 202 207 210 212 215 220 224 225 225 226 231 235 238 240 241 240 241 242 242 242 240 237 235 233 232 230 229 228 228 228 228 228 228 227 227 226 226 226 225 225 225 226 226 227 228 229 230 231 232 233 234 235 235 236
133 134 133 133 132 132 133 134 135 137 140 144 148 152 152 151 149 150 152 156 160 163 166 169 172 175 178 181 185 190 193 199 206 213 217 220 224 229 234 237 236 235 237 241 243 243 242 240 238 238 237 234 232 230 228 227 226 225 225 224 225 225 226 226 226 226 226 226 226 227 227 228 228 229 230 231 231 232 233 234 234 235 235 235 234 234
147 148 147 145 144 143 143 143 144 146 148 151 152 153 153 152 151 151 154 157 160 163 166 172 175 178 182 186 189 192 195 201 208 215 222 226 230 233 237 240 240 238 237 239 241 241 238 233 231 229 227 225 222 220 219 219 220 221 222 223 224 225 226 227 227 228 228 229 230 231 231 232 232 232 233 233 233 233 234 234 233 233 232 231 230 229
159 159 159 157 156 156 158 161 165 168 169 169 168 167 165 163 160 159 160 165 168 170 173 179 183 186 191 194 195 196 200 206 211 217 223 228 232 234 235 237 237 235 233 233 235 234 231 225 222 221 220 218 216 215 216 218 220 223 225 226 227 228 229 230 231 231 232 233 233 234 234 234 234 234 234 233 233 232 232 231 230 229 228 227 225 224
170 170 170 169 168 168 171 174 177 179 182 184 183 182 179 174 168 165 168 177 180 181 184 188 193 198 201 201 201 203 208 212 215 219 224 229 231 232 232 232 231 228 226 226 226 225 221 217 216 217 217 216 216 217 219 223 226 228 230 231 232 233 234 234 235 235 235 235 235 235 235 235 234 234 233 232 231 230 229 227 226 226 225 225 225 225
182 182 181 179 178 178 179 180 182 183 186 189 191 191 189 186 182 181 184 187 185 186 198 201 204 207 211 211 211 213 216 217 219 221 225 228 229 229 228 228 225 220 218 218 218 216 215 214 215 216 218 219 221 224 227 231 233 235 236 238 239 239 239 239 238 238 237 237 236 235 234 234 233 232 231 230 228 227 226 225 225 226 226 227 229 232
193 192 190 188 186 186 186 185 187 188 191 194 195 196 196 196 198 201 201 196 186 183 198 207 213 214 214 215 219 223 224 222 221 223 226 226 226 226 225 223 219 214 211 214 213 213 215 217 218 220 223 225 228 231 234 237 239 240 241 242 243 243 242 241 240 239 238 237 236 234 233 232 231 231 229 228 227 226 226 227 228 230 232 234 238 241
202 202 200 197 194 193 192 192 193 195 197 198 199 199 200 202 207 212 214 207 196 188 189 195 202 205 203 204 214 223 227 225 223 224 224 221 219 220 223 219 214 210 209 213 213 213 217 222 225 228 230 232 234 236 240 242 243 243 243 243 243 243 242 241 240 238 236 235 234 234 233 232 231 231 230 229 229 229 229 231 234 237 241 244 248 251
214 213 212 208 205 201 200 200 201 203 203 203 202 202 204 205 209 213 218 215 205 196 191 192 194 195 195 194 198 205 213 216 218 218 215 212 211 214 218 216 211 208 210 214 216 218 222 228 233 236 239 239 239 240 242 244 245 245 244 242 240 240 240 240 239 238 235 234 233 233 233 232 232 232 231 231 231 233 234 237 241 245 249 253 257 260
227 224 222 220 216 213 210 209 210 210 210 209 207 206 206 208 209 213 217 218 213 206 200 198 197 195 193 193 194 198 202 206 208 209 206 200 203 211 215 215 210 208 212 218 221 224 227 233 239 243 244 245 243 243 243 244 245 246 244 241 239 238 238 239 239 238 236 234 233 233 233 233 233 233 233 234 235 237 239 243 247 251 255 260 264 267
237 232 228 226 225 223 220 216 215 215 216 216 214 211 210 210 211 213 217 220 219 215 210 207 205 203 199 196 195 198 202 205 207 206 201 193 198 208 216 215 212 211 216 221 226 229 233 237 242 245 246 247 246 245 244 245 245 245 244 242 239 238 238 239 239 239 238 236 235 235 234 234 234 235 235 237 239 241 244 248 252 256 260 263 267 270
241 236 232 229 228 226 224 222 219 218 218 220 220 218 214 213 213 215 218 221 221 220 216 213 212 212 210 208 205 203 206 210 211 208 202 195 199 209 216 217 216 217 218 223 228 233 236 239 242 245 246 247 247 247 247 246 246 245 244 243 241 240 239 239 239 240 240 239 238 237 237 237 237 237 238 240 242 245 248 252 255 259 263 266 269 271
242 239 236 233 229 225 223 221 220 219 219 222 224 223 219 217 216 217 219 221 223 221 218 215 213 213 213 214 214 213 215 217 217 213 206 201 204 210 215 218 220 221 220 221 226 233 236 238 241 244 246 246 247 248 248 248 246 246 244 244 243 242 241 240 240 240 241 240 239 239 239 240 241 242 242 244 246 249 252 255 259 262 265 268 271 274
240 239 238 235 230 225 221 219 218 217 217 220 222 222 220 218 217 217 218 220 221 220 217 215 212 211 211 211 212 214 217 220 220 217 211 207 208 211 215 219 222 225 224 222 224 229 234 236 239 243 245 247 247 247 247 247 247 246 245 244 243 243 242 241 240 240 241 241 241 241 241 242 243 245 247 249 250 253 257 260 263 265 268 272 274 277
236 235 234 233 230 225 220 216 214 214 215 215 215 215 215 215 215 215 215 216 217 216 214 212 210 209 208 209 209 211 215 218 220 219 214 211 210 213 216 220 224 228 230 230 229 230 234 237 239 241 244 246 247 248 248 247 246 246 246 245 245 244 243 242 241 241 241 241 242 243 244 245 247 249 251 253 255 258 262 265 268 270 274 277 279 281
231 230 230 229 227 222 217 213 212 212 211 209 209 210 210 210 211 212 214 215 216 215 214 212 211 210 209 209 210 212 216 219 222 223 221 217 216 218 220 223 227 232 235 237 236 236 236 239 241 243 245 246 247 247 248 247 247 247 247 247 246 246 245 243 242 242 242 242 243 245 247 248 250 253 255 257 260 263 267 270 273 276 278 281 284 286
226 226 225 224 223 220 216 213 212 210 208 206 205 205 207 208 209 210 213 215 217 218 219 219 218 218 218 219 218 220 222 226 230 231 231 228 227 227 227 227 230 235 238 240 240 239 238 239 241 243 245 246 246 246 246 246 246 247 246 246 247 248 247 246 245 244 244 244 245 247 249 252 254 257 259 262 265 267 270 273 277 280 283 284 286 288
223 221 220 219 217 215 213 212 210 209 207 204 202 202 204 206 207 208 211 213 216 220 223 223 223 222 222 224 226 229 230 231 233 235 235 234 233 231 230 230 232 235 238 239 239 238 238 238 239 241 243 244 245 245 245 245 246 247 246 245 247 250 251 251 249 249 248 248 248 250 253 255 258 261 264 267 270 272 274 277 280 283 285 287 287 288
219 216 214 213 212 211 210 209 207 204 202 200 199 201 203 204 205 206 207 209 213 217 221 222 222 221 220 220 224 227 229 230 230 231 231 232 231 230 230 230 231 234 237 238 237 237 239 239 239 240 242 244 244 243 244 245 247 247 247 247 248 253 258 257 255 252 252 252 253 254 257 260 263 265 268 271 274 276 278 280 282 284 286 287 287 288
212 210 209 208 208 207 206 204 202 201 199 197 197 199 202 204 203 204 205 208 213 218 220 223 225 225 225 226 227 228 229 230 230 229 229 229 229 228 228 229 231 234 237 237 236 237 239 240 240 241 243 245 245 245 246 247 248 248 249 250 250 252 256 259 260 260 259 260 260 260 262 264 267 270 273 275 277 278 280 281 283 284 285 286 286 287
209 207 206 205 203 201 198 198 198 198 197 196 197 198 201 202 203 203 205 209 215 219 221 225 226 226 227 230 232 232 231 231 231 230 230 230 229 229 228 228 230 233 236 237 238 238 238 239 240 242 244 245 246 247 249 250 252 253 254 255 256 257 258 261 265 266 268 269 269 269 269 270 273 275 277 278 279 280 281 282 284 285 285 286 286 286
206 204 201 200 198 195 193 195 196 196 196 197 199 201 202 204 205 206 208 212 215 219 222 225 225 224 225 229 232 233 232 232 231 230 230 230 230 229 229 229 230 233 235 237 239 239 240 239 241 243 246 248 249 250 251 254 257 261 263 263 265 266 267 268 270 271 272 274 275 275 275 276 277 278 279 280 280 281 282 283 284 285 285 286 286 287
203 201 198 197 195 194 195 197 197 196 196 198 201 203 204 206 207 209 211 214 217 219 222 225 225 223 224 227 229 230 230 230 230 231 230 229 230 231 231 232 233 234 235 237 239 240 240 240 241 243 247 251 254 255 256 258 262 265 268 270 270 271 272 272 272 273 274 275 276 277 278 279 279 279 279 280 280 281 283 284 284 285 285 286 286 287
201 200 198 197 195 195 195 197 197 197 197 200 203 204 206 207 208 209 212 215 217 219 222 224 224 223 224 226 228 229 229 229 229 230 230 229 229 231 233 235 237 238 239 240 240 241 242 243 243 244 247 250 254 257 260 261 262 265 267 269 271 271 271 271 272 273 273 274 275 276 277 277 278 279 280 280 281 282 283 284 285 286 286 286 287 288
200 199 198 196 196 195 196 197 198 198 200 202 204 205 206 208 209 210 212 215 217 220 222 222 223 223 224 226 228 230 231 231 231 231 231 230 229 229 230 234 238 241 242 244 245 245 246 246 247 248 250 252 255 259 262 262 263 264 266 268 269 270 270 272 273 273 273 273 274 275 276 277 278 279 281 282 283 284 285 286 287 288 288 289 289 290
198 198 197 196 196 197 197 198 199 200 202 205 206 207 208 210 211 212 214 216 219 221 223 223 223 223 225 227 229 230 231 231 232 233 233 233 231 228 226 228 231 235 239 243 246 248 249 250 252 253 254 255 257 260 264 266 267 267 267 268 268 269 270 272 273 274 275 275 276 277 278 279 280 282 284 285 286 287 287 288 289 289 290 291 292 293
199 199 199 199 199 200 201 202 203 204 206 208 210 210 211 212 213 214 216 217 220 222 224 225 225 224 224 226 228 229 230 230 231 233 235 236 234 230 226 225 225 225 227 233 240 245 248 252 258 260 259 259 259 261 265 269 272 272 271 270 270 271 271 273 274 275 276 277 279 280 281 282 284 286 287 288 289 289 289 289 290 290 291 292 294 295
Height
1410 1411 1413 1415 1417 1419 1420 1421 1422 1423 1424 1425 1426 1428 1429 1431 1432 1433 1435 1436 1437 1439 1440 1441 1442 1443 1444 1445 1446 1448 1449 1450 1451 1452 1454 1455 1455 1456 1457 1458 1459 1460 1460 1461 1462 1462 1463 1463 1464 1464 1465 1465 1466 1466 1467 1467 1468 1468 1469 1469 1469 1470 1470 1471 1471 1472 1473 1473 1474 1475 1475 1475 1476 1477 1477 1478 1477 1477 1476 1476 1476 1476 1477 1478 1479 1480
1407 1409 1410 1412 1414 1416 1417 1418 1419 1420 1421 1423 1424 1425 1427 1428 1430 1431 1432 1433 1435 1436 1437 1438 1439 1440 1441 1442 1443 1445 1446 1447 1448 1450 1451 1452 1453 1454 1455 1456 1456 1457 1458 1459 1459 1460 1460 1461 1461 1462 1462 1463 1463 1464 1464 1465 1465 1465 1466 1466 1467 1467 1468 1469 1469 1470 1470 1471 1471 1472 1473 1473 1474 1475 1475 1476 1476 1475 1474 1474 1474 1474 1474 1475 1476 1477
1404 1406 1408 1410 1411 1413 1414 1415 1417 1418 1420 1421 1422 1423 1425 1426 1427 1428 1430 1430 1432 1433 1434 1435 1436 1437 1438 1439 1440 1441 1443 1444 1445 1447 1448 1449 1450 1451 1452 1453 1454 1455 1455 1456 1456 1457 1458 1458 1459 1459 1460 1460 1460 1461 1462 1462 1463 1463 1464 1464 1465 1465 1465 1466 1467 1467 1468 1468 1469 1470 1471 1471 1471 1472 1473 1474 1474 1474 1473 1472 1472 1471 1472 1473 1474 1475
1402 1404 1405 1407 1409 1410 1411 1413 1414 1416 1417 1419 1420 1421 1422 1423 1425 1426 1427 1428 1429 1430 1431 1432 1433 1434 1435 1436 1437 1438 1440 1441 1442 1444 1445 1446 1447 1448 1449 1450 1451 1451 1452 1453 1454 1454 1455 1455 1456 1456 1457 1457 1458 1458 1459 1460 1460 1460 1461 1461 1462 1463 1463 1464 1465 1465 1465 1466 1466 1467 1469 1469 1470 1470 1470 1471 1472 1472 1472 1472 1471 1470 1470 1471 1472 1473
1400 1402 1403 1405 1406 1408 1409 1411 1412 1414 1415 1416 1418 1419 1420 1421 1422 1423 1424 1425 1427 1428 1429 1430 1431 1432 1433 1433 1434 1435 1436 1438 1439 1440 1442 1443 1444 1445 1446 1447 1448 1448 1449 1450 1450 1451 1452 1452 1453 1454 1454 1455 1455 1455 1456 1457 1457 1458 1458 1459 1460 1460 1461 1462 1463 1463 1464 1464 1464 1465 1466 1467 1467 1467 1467 1468 1469 1470 1471 1472 1471 1471 1471 1471 1471 1471
1398 1400 1402 1403 1404 1405 1407 1409 1410 1412 1413 1414 1415 1417 1418 1419 1420 1421 1422 1424 1425 1426 1427 1428 1429 1430 1430 1431 1432 1433 1434 1435 1436 1438 1439 1440 1441 1442 1443 1444 1445 1445 1446 1447 1448 1448 1449 1450 1450 1451 1451 1452 1452 1453 1453 1454 1454 1455 1455 1456 1457 1458 1459 1460 1461 1461 1462 1462 1462 1462 1463 1464 1465 1465 1465 1465 1465 1467 1469 1470 1471 1471 1471 1472 1472 1472
1397 1398 1400 1401 1402 1404 1405 1407 1408 1410 1411 1412 1413 1414 1415 1417 1418 1420 1421 1422 1423 1424 1425 1426 1427 1427 1428 1429 1430 1431 1432 1433 1434 1435 1436 1437 1438 1439 1440 1441 1442 1443 1443 1444 1445 1445 1446 1447 1447 1448 1448 1449 1449 1450 1450 1450 1451 1451 1452 1452 1453 1454 1456 1457 1459 1460 1460 1460 1460 1460 1461 1462 1463 1464 1464 1463 1463 1464 1465 1467 1468 1469 1470 1471 1471 1471
1395 1397 1398 1399 1400 1401 1403 1405 1406 1407 1409 1410 1411 1412 1413 1415 1416 1418 1419 1420 1421 1422 1423 1424 1425 1425 1426 1427 1428 1429 1429 1430 1431 1433 1434 1435 1436 1437 1437 1438 1439 1440 1440 1441 1442 1443 1443 1444 1444 1445 1445 1445 1446 1446 1447 1447 1448 1448 1449 1449 1449 1450 1452 1454 1455 1456 1457 1457 1456 1457 1458 1459 1460 1462 1462 1462 1461 1461 1462 1463 1464 1465 1466 1467 1468 1468
1394 1395 1396 1397 1398 1400 1401 1403 1404 1405 1407 1408 1409 1410 1412 1413 1415 1416 1417 1419 1420 1420 1421 1422 1422 1423 1424 1424 1425 1426 1427 1428 1429 1430 1431 1432 1433 1434 1435 1435 1436 1437 1438 1439 1439 1440 1440 1441 1441 1442 1442 1443 1443 1443 1444 1444 1444 1445 1445 1445 1446 1447 1448 1450 1452 1453 1454 1453 1453 1453 1453 1455 1456 1458 1458 1458 1458 1458 1458 1459 1460 1461 1462 1463 1464 1464
1392 1393 1394 1395 1397 1398 1399 1400 1402 1404 1405 1406 1408 1409 1410 1412 1413 1414 1415 1416 1417 1418 1419 1420 1420 1421 1422 1422 1423 1424 1425 1426 1427 1428 1429 1430 1430 1431 1432 1433 1433 1434 1435 1436 1436 1437 1438 1439 1439 1440 1440 1440 1441 1441 1441 1441 1442 1442 1442 1443 1443 1444 1445 1446 1448 1450 1451 1451 1450 1450 1451 1452 1454 1455 1456 1455 1455 1455 1455 1456 1456 1457 1458 1459 1460 1461
1391 1392 1393 1394 1395 1397 1398 1400 1401 1403 1405 1406 1407 1408 1410 1410 1412 1413 1414 1415 1415 1416 1417 1418 1419 1420 1420 1421 1421 1422 1423 1424 1425 1425 1426 1427 1428 1429 1430 1430 1431 1432 1433 1434 1435 1435 1436 1437 1437 1438 1438 1438 1438 1438 1439 1439 1440 1440 1440 1441 1441 1442 1443 1444 1445 1446 1448 1449 1449 1448 1449 1450 1452 1453 1454 1453 1453 1453 1452 1453 1453 1454 1455 1455 1456 1457
1393 1394 1394 1395 1396 1397 1398 1400 1401 1403 1404 1405 1406 1408 1409 1410 1411 1412 1412 1413 1414 1415 1415 1416 1417 1418 1419 1420 1420 1421 1421 1422 1423 1424 1425 1426 1427 1427 1428 1429 1430 1431 1431 1432 1433 1434 1435 1435 1435 1435 1435 1436 1436 1436 1436 1437 1437 1438 1439 1439 1440 1440 1440 1441 1442 1443 1444 1445 1446 1446 1446 1447 1449 1450 1450 1450 1450 1450 1449 1449 1450 1450 1451 1452 1453 1454
1395 1396 1396 1396 1397 1398 1399 1400 1402 1403 1404 1405 1406 1407 1408 1409 1410 1411 1411 1412 1413 1414 1414 1415 1416 1417 1418 1419 1419 1420 1420 1421 1422 1423 1424 1424 1425 1426 1427 1427 1428 1429 1430 1431 1431 1432 1433 1433 1433 1433 1433 1434 1434 1434 1434 1435 1436 1437 1437 1437 1438 1438 1438 1438 1439 1440 1441 1442 1443 1443 1443 1444 1445 1445 1446 1447 1447 1447 1448 1448 1449 1450 1452 1453 1454 1455
1397 1398 1398 1398 1398 1399 1400 1401 1402 1404 1404 1405 1406 1407 1408 1409 1409 1410 1410 1411 1412 1413 1413 1414 1415 1415 1416 1417 1418 1419 1419 1420 1421 1421 1422 1423 1424 1425 1425 1426 1426 1427 1428 1429 1430 1430 1431 1431 1431 1432 1432 1432 1432 1432 1433 1434 1435 1436 1436 1436 1436 1436 1436 1436 1437 1438 1439 1439 1440 1440 1440 1440 1441 1443 1444 1445 1446 1448 1449 1450 1452 1453 1455 1455 1456 1457
1398 1398 1398 1398 1399 1400 1400 1402 1403 1404 1404 1405 1405 1406 1407 1408 1409 1410 1410 1411 1411 1412 1412 1413 1413 1414 1415 1416 1416 1417 1418 1419 1420 1420 1421 1422 1422 1423 1424 1425 1425 1426 1427 1428 1429 1429 1430 1430 1430 1430 1430 1431 1431 1432 1433 1434 1435 1435 1435 1435 1435 1435 1435 1436 1436 1437 1438 1438 1438 1439 1439 1440 1441 1443 1445 1446 1448 1450 1451 1452 1453 1454 1455 1455 1455 1456
1397 1398 1398 1399 1399 1400 1401 1402 1403 1403 1404 1404 1405 1406 1407 1408 1409 1410 1410 1410 1411 1411 1411 1412 1412 1413 1414 1415 1415 1416 1417 1418 1418 1419 1420 1421 1422 1422 1423 1424 1425 1425 1426 1427 1428 1428 1429 1429 1429 1430 1430 1430 1431 1432 1433 1434 1434 1435 1435 1435 1435 1435 1435 1436 1436 1437 1438 1438 1439 1440 1440 1441 1443 1445 1446 1448 1449 1450 1451 1452 1452 1453 1453 1453 1454 1454
1396 1397 1397 1398 1399 1400 1400 1401 1402 1403 1404 1404 1405 1406 1407 1408 1409 1410 1410 1410 1410 1411 1411 1411 1411 1412 1413 1414 1414 1415 1416 1417 1418 1418 1420 1420 1421 1422 1423 1423 1424 1425 1425 1426 1427 1427 1428 1428 1429 1429 1430 1430 1431 1432 1432 1433 1434 1434 1434 1434 1435 1435 1435 1436 1437 1438 1438 1439 1440 1441 1442 1443 1444 1445 1447 1448 1449 1450 1450 1451 1451 1451 1451 1452 1452 1452
1395 1395 1396 1397 1398 1399 1400 1400 1401 1402 1403 1404 1405 1406 1407 1408 1409 1410 1410 1410 1410 1410 1410 1410 1411 1411 1411 1412 1413 1414 1415 1416 1417 1417 1419 1420 1420 1421 1422 1423 1424 1425 1425 1426 1426 1427 1427 1428 1428 1429 1430 1430 1431 1431 1432 1433 1433 1433 1434 1434 1435 1435 1436 1437 1437 1438 1439 1440 1440 1441 1442 1443 1444 1445 1446 1447 1448 1449 1449 1449 1450 1450 1450 1450 1450 1450
1394 1394 1395 1396 1397 1398 1399 1399 1400 1401 1402 1403 1404 1405 1406 1407 1408 1409 1409 1410 1410 1410 1410 1410 1410 1410 1411 1411 1412 1413 1414 1415 1416 1417 1418 1419 1420 1421 1421 1422 1423 1424 1425 1425 1426 1426 1427 1427 1428 1428 1429 1430 1430 1431 1431 1432 1432 1433 1433 1434 1434 1435 1435 1436 1437 1438 1439 1439 1440 1440 1441 1442 1443 1444 1445 1446 1447 1447 1448 1448 1448 1448 1449 1449 1449 1449
1393 1393 1394 1395 1395 1397 1397 1398 1399 1400 1401 1402 1403 1404 1405 1406 1407 1408 1408 1409 1409 1409 1409 1409 1409 1410 1410 1411 1412 1412 1413 1414 1415 1416 1417 1419 1420 1420 1421 1422 1423 1423 1424 1425 1425 1426 1426 1427 1427 1428 1429 1429 1430 1430 1431 1431 1431 1432 1432 1433 1433 1434 1434 1435 1436 1437 1437 1438 1439 1439 1440 1440 1441 1442 1443 1444 1445 1446 1446 1447 1447 1447 1447 1447 1448 1448
1392 1393 1393 1394 1395 1396 1397 1398 1399 1400 1400 1401 1402 1403 1404 1405 1406 1406 1407 1407 1408 1408 1408 1408 1408 1409 1410 1410 1411 1412 1413 1414 1415 1415 1417 1418 1419 1420 1421 1421 1422 1423 1424 1424 1425 1425 1425 1426 1427 1427 1428 1428 1429 1429 1430 1430 1430 1431 1431 1431 1432 1433 1433 1434 1435 1435 1436 1436 1437 1438 1439 1439 1440 1441 1442 1443 1444 1444 1445 1445 1445 1446 1446 1446 1447 1447
1392 1393 1393 1394 1395 1396 1397 1398 1399 1400 1400 1401 1402 1403 1404 1405 1405 1405 1406 1406 1406 1407 1407 1407 1408 1408 1409 1410 1411 1411 1412 1413 1414 1415 1416 1417 1418 1419 1420 1421 1422 1422 1423 1424 1424 1425 1425 1425 1426 1427 1427 1428 1428 1429 1429 1429 1430 1430 1430 1431 1431 1432 1432 1433 1434 1434 1435 1435 1436 1437 1438 1439 1440 1440 1441 1442 1442 1443 1443 1444 1444 1445 1445 1445 1445 1446
1393 1393 1394 1395 1396 1397 1398 1399 1400 1400 1401 1401 1402 1403 1403 1404 1405 1405 1405 1405 1405 1406 1406 1407 1407 1408 1409 1410 1411 1411 1412 1413 1414 1415 1416 1417 1418 1419 1420 1420 1421 1422 1423 1423 1424 1424 1425 1425 1426 1426 1427 1427 1428 1428 1428 1429 1429 1429 1430 1430 1430 1431 1431 1432 1433 1434 1434 1435 1436 1436 1437 1438 1439 1440 1440 1441 1441 1442 1442 1443 1443 1444 1444 1444 1445 1445
1395 1395 1396 1397 1398 1399 1400 1400 1401 1401 1402 1402 1402 1403 1403 1403 1404 1404 1405 1405 1405 1405 1406 1407 1407 1408 1408 1410 1410 1411 1412 1413 1414 1415 1416 1416 1417 1419 1419 1420 1421 1421 1422 1423 1423 1424 1424 1425 1425 1426 1426 1427 1427 1427 1428 1428 1428 1429 1429 1430 1430 1430 1431 1432 1432 1433 1434 1435 1435 1436 1437 1438 1438 1439 1440 1440 1441 1441 1441 1442 1442 1442 1443 1443 1444 1444
1396 1397 1398 1399 1400 1400 1401 1402 1402 1403 1403 1403 1403 1403 1403 1403 1403 1404 1404 1405 1405 1405 1406 1406 1407 1407 1408 1409 1410 1411 1412 1413 1414 1415 1415 1416 1417 1418 1419 1420 1420 1421 1422 1422 1423 1423 1424 1424 1425 1425 1426 1426 1426 1427 1427 1428 1428 1428 1429 1429 1430 1430 1431 1431 1432 1433 1433 1434 1435 1435 1436 1437 1438 1438 1439 1440 1440 1440 1440 1441 1441 1442 1442 1442 1443 1443
1397 1398 1399 1400 1400 1401 1401 1402 1402 1403 1403 1403 1404 1403 1403 1403 1403 1404 1404 1404 1405 1405 1405 1406 1407 1407 1408 1409 1410 1411 1412 1413 1414 1415 1415 1416 1417 1418 1418 1419 1420 1420 1421 1421 1422 1422 1423 1424 1424 1425 1425 1425 1426 1426 1427 1427 1428 1428 1429 1429 1430 1430 1431 1431 1432 1432 1433 1434 1435 1435 1436 1436 1437 1438 1438 1439 1439 1439 1440 1440 1440 1441 1441 1441 1442 1442
1398 1399 1399 1400 1400 1401 1401 1402 1402 1402 1403 1403 1403 1403 1403 1403 1403 1404 1404 1404 1405 1405 1405 1406 1407 1407 1408 1409 1410 1410 1412 1412 1413 1414 1415 1415 1416 1417 1418 1418 1419 1420 1420 1421 1421 1422 1422 1423 1424 1424 1425 1425 1425 1426 1426 1427 1427 1428 1428 1429 1430 1430 1430 1431 1432 1432 1433 1433 1434 1435 1435 1436 1436 1437 1437 1438 1438 1438 1439 1439 1440 1440 1440 1440 1441 1441
1398 1398 1399 1399 1400 1400 1400 1401 1401 1402 1402 1403 1403 1403 1403 1403 1403 1403 1404 1405 1405 1405 1406 1406 1407 1407 1408 1409 1410 1410 1411 1412 1413 1414 1415 1415 1416 1416 1417 1418 1418 1419 1420 1420 1421 1421 1422 1423 1423 1424 1424 1425 1425 1426 1426 1427 1427 1428 1428 1429 1429 1430 1430 1431 1431 1432 1432 1433 1433 1434 1435 1435 1435 1436 1436 1437 1437 1437 1438 1438 1439 1439 1439 1440 1440 1440
1397 1398 1398 1399 1399 1400 1400 1400 1401 1401 1402 1402 1402 1403 1403 1403 1403 1404 1404 1405 1405 1405 1406 1406 1407 1408 1408 1409 1410 1410 1411 1412 1413 1413 1414 1415 1415 1416 1417 1417 1418 1418 1419 1420 1420 1421 1422 1422 1423 1424 1424 1425 1425 1426 1426 1427 1427 1428 1428 1429 1429 1429 1430 1430 1431 1431 1432 1432 1433 1433 1434 1434 1435 1435 1435 1436 1436 1436 1437 1437 1438 1438 1439 1439 1439 1440
1397 1397 1398 1398 1399 1399 1400 1400 1400 1401 1401 1402 1402 1402 1403 1403 1403 1404 1404 1405 1405 1406 1406 1407 1407 1408 1409 1409 1410 1411 1411 1412 1412 1413 1414 1414 1415 1415 1416 1416 1417 1418 1419 1420 1420 1421 1421 1422 1423 1423 1424 1425 1425 1426 1426 1427 1427 1428 1428 1428 1429 1429 1429 1430 1430 1431 1431 1432 1432 1433 1433 1433 1434 1434 1435 1435 1435 1436 1436 1436 1437 1437 1438 1438 1439 1439
1397 1397 1397 1398 1398 1399 1399 1400 1400 1400 1401 1401 1402 1402 1402 1403 1403 1404 1404 1405 1405 1406 1407 1407 1408 1408 1409 1410 1410 1410 1411 1412 1412 1413 1414 1414 1415 1415 1416 1416 1417 1418 1419 1419 1420 1421 1421 1422 1422 1423 1424 1424 1425 1425 1426 1426 1427 1427 1427 1428 1428 1428 1429 1429 1430 1430 1430 1431 1431 1432 1432 1433 1433 1433 1434 1434 1435 1435 1435 1436 1436 1437 1437 1437 1438 1438
1396 1397 1397 1398 1398 1398 1399 1399 1400 1400 1400 1401 1401 1402 1402 1403 1404 1404 1405 1405 1406 1406 1406 1407 1407 1408 1409 1409 1410 1410 1411 1412 1412 1413 1414 1414 1415 1415 1415 1416 1417 1418 1419 1419 1420 1420 1421 1422 1422 1423 1423 1424 1425 1425 1425 1426 1426 1426 1427 1427 1427 1428 1428 1429 1429 1429 1430 1430 1431 1431 1431 1432 1432 1433 1433 1433 1434 1434 1435 1435 1435 1436 1436 1437 1437 1437
1396 1396 1397 1397 1398 1398 1398 1399 1399 1400 1400 1400 1401 1402 1403 1403 1404 1405 1405 1406 1406 1406 1406 1407 1407 1408 1408 1409 1409 1410 1411 1411 1412 1413 1414 1414 1415 1415 1415 1416 1417 1418 1419 1419 1420 1420 1421 1422 1422 1423 1423 1424 1424 1425 1425 1425 1426 1426 1426 1426 1427 1427 1428 1428 1428 1429 1429 1430 1430 1430 1431 1431 1432 1432 1432 1433 1433 1434 1434 1435 1435 1435 1435 1436 1436 1436
1395 1396 1397 1397 1397 1398 1398 1399 1399 1399 1400 1400 1401 1402 1403 1403 1404 1405 1405 1406 1406 1406 1406 1407 1407 1407 1408 1409 1409 1410 1410 1411 1412 1413 1414 1414 1415 1415 1415 1416 1417 1418 1419 1419 1420 1420 1421 1422 1422 1423 1423 1423 1424 1424 1425 1425 1425 1425 1426 1426 1426 1427 1427 1427 1428 1428 1428 1429 1429 1430 1430 1430 1431 1431 1432 1432 1432 1433 1433 1434 1434 1434 1434 1435 1435 1435
1395 1396 1396 1397 1397 1398 1398 1399 1399 1400 1400 1401 1401 1402 1403 1403 1404 1405 1405 1406 1406 1406 1406 1407 1407 1407 1408 1408 1409 1410 1410 1411 1412 1413 1413 1414 1415 1415 1415 1416 1417 1418 1419 1419 1420 1420 1421 1422 1422 1422 1423 1423 1423 1424 1424 1425 1425 1425 1425 1425 1426 1426 1426 1427 1427 1427 1428 1428 1429 1429 1429 1430 1430 1430 1431 1431 1431 1432 1432 1433 1433 1433 1433 1433 1433 1433
1395 1395 1396 1396 1397 1397 1398 1398 1399 1400 1400 1401 1401 1402 1403 1403 1404 1404 1405 1405 1406 1406 1406 1407 1407 1408 1408 1409 1409 1410 1410 1411 1412 1412 1413 1414 1415 1415 1415 1416 1417 1418 1418 1419 1420 1420 1421 1421 1422 1422 1422 1423 1423 1423 1424 1424 1424 1424 1425 1425 1425 1425 1425 1426 1426 1427 1427 1427 1428 1428 1428 1429 1429 1430 1430 1430 1430 1431 1431 1431 1432 1432 1432 1432 1432 1432
1395 1395 1395 1396 1396 1397 1398 1398 1399 1400 1400 1401 1401 1402 1402 1403 1404 1404 1405 1405 1405 1406 1406 1407 1407 1408 1408 1409 1409 1410 1410 1411 1412 1412 1413 1414 1415 1415 1415 1416 1417 1417 1418 1419 1420 1420 1420 1421 1421 1421 1422 1422 1422 1422 1423 1423 1423 1423 1424 1424 1424 1425 1425 1425 1425 1426 1426 1426 1427 1427 1428 1428 1428 1429 1429 1429 1430 1430 1430 1430 1430 1430 1430 1430 1430 1430
1394 1395 1395 1396 1396 1397 1398 1398 1399 1400 1400 1401 1401 1402 1402 1403 1403 1404 1404 1405 1405 1406 1406 1406 1407 1407 1408 1409 1409 1410 1410 1411 1412 1412 1413 1414 1414 1415 1415 1416 1416 1417 1418 1418 1419 1420 1420 1420 1421 1421 1421 1421 1421 1422 1422 1422 1422 1423 1423 1423 1424 1424 1424 1425 1425 1425 1425 1425 1426 1426 1427 1427 1427 1428 1428 1428 1428 1429 1429 1429 1429 1429 1429 1429 1429 1429
1394 1395 1395 1396 1396 1397 1398 1398 1399 1400 1400 1400 1401 1402 1402 1403 1403 1404 1404 1405 1405 1405 1406 1406 1407 1407 1408 1408 1409 1410 1410 1411 1411 1412 1413 1413 1414 1415 1415 1415 1416 1416 1417 1418 1418 1419 1420 1420 1420 1420 1420 1421 1421 1421 1421 1422 1422 1422 1422 1422 1423 1423 1423 1424 1424 1424 1424 1425 1425 1425 1426 1426 1426 1426 1427 1427 1427 1427 1427 1427 1427 1427 1427 1427 1427 1427
1394 1395 1395 1396 1396 1397 1398 1398 1399 1399 1400 1400 1401 1401 1402 1402 1403 1403 1404 1404 1405 1405 1406 1406 1407 1407 1408 1408 1409 1410 1410 1410 1411 1412 1412 1413 1413 1414 1415 1415 1415 1416 1416 1417 1418 1418 1419 1419 1419 1420 1420 1420 1420 1420 1421 1421 1421 1421 1421 1422 1422 1422 1422 1423 1423 1423 1424 1424 1424 1425 1425 1425 1425 1425 1425 1426 1426 1426 1426 1426 1426 1426 1426 1425 1425 1425
1394 1394 1395 1395 1396 1397 1397 1398 1399 1399 1400 1400 1400 1401 1401 1402 1402 1403 1403 1404 1405 1405 1405 1406 1406 1407 1407 1408 1409 1409 1410 1410 1411 1411 1412 1412 1413 1414 1414 1415 1415 1415 1416 1416 1417 1417 1418 1418 1419 1419 1419 1420 1420 1420 1420 1420 1420 1420 1421 1421 1421 1421 1421 1422 1422 1422 1423 1423 1423 1424 1424 1424 1424 1424 1425 1425 1425 1425 1425 1425 1425 1424 1424 1424 1424 1423
1393 1394 1395 1395 1395 1396 1397 1397 1398 1398 1399 1400 1400 1400 1401 1401 1402 1402 1403 1404 1404 1405 1405 1406 1406 1407 1407 1408 1408 1409 1410 1410 1410 1411 1412 1412 1413 1413 1414 1414 1415 1415 1415 1416 1416 1416 1417 1417 1418 1418 1418 1419 1419 1419 1419 1419 1420 1420 1420 1420 1420 1420 1420 1421 1421 1422 1422 1422 1422 1423 1423 1423 1423 1423 1423 1423 1423 1423 1423 1423 1423 1423 1423 1422 1422 1422
1393 1393 1394 1395 1395 1396 1396 1397 1397 1398 1398 1399 1400 1400 1400 1401 1402 1402 1403 1403 1404 1405 1405 1405 1406 1407 1407 1408 1408 1409 1409 1410 1410 1411 1411 1412 1412 1413 1413 1414 1414 1415 1415 1415 1415 1416 1416 1416 1417 1417 1417 1418 1418 1418 1418 1419 1419 1419 1419 1419 1420 1420 1420 1420 1420 1421 1421 1421 1421 1422 1422 1422 1422 1422 1422 1422 1422 1422 1422 1421 1421 1421 1421 1421 1420 1420
1392 1393 1393 1394 1395 1395 1396 1396 1397 1397 1398 1398 1399 1400 1400 1401 1401 1402 1403 1403 1404 1404 1405 1405 1406 1406 1407 1407 1408 1409 1409 1410 1410 1411 1411 1411 1412 1412 1413 1413 1413 1414 1414 1415 1415 1415 1415 1415 1416 1416 1417 1417 1417 1417 1418 1418 1418 1418 1418 1419 1419 1419 1419 1419 1419 1420 1420 1420 1420 1420 1420 1420 1420 1421 1421 1421 1421 1420 1420 1420 1420 1420 1420 1419 1419 1418
1392 1392 1393 1394 1394 1395 1395 1396 1396 1397 1398 1398 1399 1400 1400 1400 1401 1402 1403 1403 1404 1404 1405 1405 1406 1406 1407 1407 1408 1408 1409 1409 1410 1410 1411 1411 1411 1412 1412 1413 1413 1413 1414 1414 1414 1415 1415 1415 1415 1415 1416 1416 1416 1417 1417 1417 1417 1417 1418 1418 1418 1418 1418 1418 1419 1419 1419 1419 1419 1419 1419 1419 1420 1420 1420 1420 1419 1419 1419 1418 1418 1418 1418 1417 1417 1416
1392 1392 1393 1393 1394 1395 1395 1396 1396 1397 1398 1398 1399 1399 1400 1400 1401 1402 1402 1403 1403 1404 1404 1405 1405 1406 1406 1407 1407 1408 1408 1409 1409 1410 1410 1411 1411 1411 1412 1412 1412 1413 1413 1413 1413 1414 1414 1414 1414 1415 1415 1415 1415 1416 1416 1416 1416 1416 1417 1417 1417 1417 1417 1418 1418 1418 1418 1418 1418 1418 1418 1418 1418 1418 1418 1418 1418 1417 1417 1417 1416 1416 1416 1415 1415 1415
1391 1392 1393 1393 1394 1394 1395 1395 1396 1397 1397 1398 1399 1399 1400 1400 1401 1401 1402 1402 1403 1404 1404 1405 1405 1405 1406 1406 1407 1407 1408 1408 1409 1409 1410 1410 1410 1411 1411 1411 1411 1412 1412 1412 1413 1413 1413 1413 1414 1414 1414 1414 1415 1415 1415 1415 1415 1416 1416 1416 1416 1416 1416 1416 1417 1417 1417 1417 1416 1417 1417 1417 1416 1416 1416 1416 1416 1416 1415 1415 1415 1414 1414 1414 1413 1413
1391 1392 1392 1393 1394 1394 1395 1395 1396 1396 1397 1398 1398 1399 1399 1400 1400 1401 1401 1402 1403 1403 1404 1404 1404 1405 1405 1406 1406 1406 1407 1407 1408 1408 1409 1409 1410 1410 1410 1410 1411 1411 1411 1412 1412 1412 1412 1413 1413 1413 1413 1414 1414 1414 1414 1415 1415 1415 1415 1415 1415 1415 1415 1415 1415 1415 1415 1415 1415 1415 1415 1415 1415 1415 1415 1414 1414 1414 1414 1413 1413 1412 1412 1411 1411 1411
1391 1391 1392 1393 1393 1394 1394 1395 1395 1396 1397 1397 1398 1398 1399 1399 1400 1400 1401 1401 1402 1402 1403 1403 1404 1404 1405 1405 1405 1406 1406 1407 1407 1408 1408 1409 1409 1409 1410 1410 1410 1410 1410 1411 1411 1411 1412 1412 1412 1412 1413 1413 1413 1413 1413 1414 1414 1414 1414 1415 1415 1415 1415 1414 1414 1414 1414 1414 1414 1414 1414 1414 1413 1413 1413 1413 1412 1412 1412 1412 1411 1410 1410 1410 1409 1409
1390 1391 1392 1392 1393 1394 1394 1395 1395 1396 1396 1397 1397 1398 1398 1399 1400 1400 1400 1401 1401 1402 1402 1403 1403 1404 1404 1404 1405 1405 1406 1406 1406 1407 1407 1408 1408 1409 1409 1409 1410 1410 1410 1410 1410 1411 1411 1411 1411 1411 1412 1412 1412 1413 1413 1413 1413 1413 1413 1414 1414 1414 1413 1413 1413 1413 1413 1413 1412 1412 1412 1412 1412 1412 1411 1411 1411 1410 1410 1410 1409 1409 1408 1408 1407 1407
1390 1391 1391 1392 1393 1393 1394 1394 1395 1395 1396 1396 1397 1397 1398 1399 1399 1400 1400 1400 1401 1401 1402 1402 1403 1403 1403 1404 1404 1405 1405 1405 1406 1406 1406 1407 1407 1408 1409 1409 1409 1410 1410 1410 1410 1410 1410 1410 1410 1410 1411 1411 1411 1412 1412 1412 1412 1412 1412 1412 1412 1412 1412 1412 1412 1411 1411 1411 1411 1411 1411 1410 1410 1410 1410 1410 1409 1409 1408 1408 1407 1407 1406 1406 1406 1405